Home   Weather   Poitiers   Past weeks

Flag for France Past Weather in Poitiers, Poitou-Charentes, France — Yesterday and Last 2 Weeks

Now
54 °F

Sunny.


Feels Like: 50 °F
Forecast: 41 / 55 °F
Wind: 10 mph from South

Location: Poitiers Airport

Current Time: Dec 8, 2016 at 3:13:45 pm

Latest Report: Dec 8, 2016 at 2:30 pm


Visibility: 10 mi

Pressure: 30.42 "Hg

Humidity: 67%

Dew Point: 43 °F

Location of PoitiersLocation

Past Weather in Poitiers — Graph

°F

Poitiers Temperature Yesterday

Maximum temperature yesterday: 59 °F (at 2:30 pm)
Minimum temperature yesterday: 34 °F (at 8:30 am)
Average temperature yesterday: 44 °F

High & Low Weather Summary for the Past Weeks

 TemperatureHumidityPressure
High64 °F (Nov 24, 12:30 pm)100% (Nov 25, 1:30 am)30.54 "Hg (Nov 25, 1:30 am)
Low27 °F (Dec 2, 5:00 am)49% (Nov 24, 1:00 pm)29.68 "Hg (Nov 24, 4:00 am)
Average42 °F84%30.14 "Hg
* Reported Nov 23 2:00 pm — Dec 8 2:00 pm, Poitiers, Weather by CustomWeather, © 2016

Note: Actual official high and low records may vary slightly from our data, if they occured in-between our weather recording intervals... More about our weather records

Advertising

Poitiers Weather History for the Previous 24 Hours

Scroll right to see more
 ConditionsComfort  
Time TempWeatherWind HumidityBarometerVisibility
2:00 pm
Thu, Dec 8
54 °FSunny.10 mph67%30.42 "Hg10 mi
1:30 pm54 °FSunny.16 mph63%30.45 "Hg10 mi
1:00 pm54 °FSunny.15 mph63%30.45 "Hg10 mi
12:30 pm54 °FSunny.16 mph63%30.45 "Hg10 mi
12:00 pm52 °FSunny.12 mph62%30.45 "Hg10 mi
11:30 am50 °FSunny.9 mph62%30.45 "Hg10 mi
11:00 am46 °FSunny.9 mph66%30.48 "Hg10 mi
10:30 am45 °FSunny.5 mph71%30.45 "Hg10 mi
10:00 am41 °FSunny.6 mph81%30.45 "Hg10 mi
9:30 am39 °FSunny.3 mph81%30.45 "Hg10 mi
9:00 am37 °FSunny.6 mph93%30.45 "Hg10 mi
8:30 am34 °FSunny.No wind100%30.45 "Hg10 mi
8:00 am34 °FClear.1 mph93%30.45 "Hg10 mi
7:30 am36 °FClear.5 mph93%30.45 "Hg10 mi
7:00 am34 °FClear.No wind100%30.45 "Hg6 mi
6:30 am34 °FClear.3 mph100%30.45 "Hg6 mi
6:00 am34 °FClear.5 mph93%30.45 "Hg6 mi
5:30 am34 °FClear.5 mph93%30.45 "Hg4 mi
5:00 am34 °FClear.5 mph100%30.45 "Hg4 mi
4:30 am34 °FLight fog.2 mph93%30.45 "Hg3 mi
3:30 am34 °FFog.2 mph93%30.45 "Hg2 mi
2:30 am34 °FFog.2 mph100%30.45 "Hg2 mi
2:00 am34 °FFog.2 mph100%30.45 "Hg3 mi
1:30 am34 °FFog.2 mph93%30.45 "Hg3 mi
1:00 am36 °FClear.3 mph93%30.45 "Hg4 mi
12:30 am36 °FClear.1 mph100%30.45 "Hg5 mi
12:00 am36 °FClear.3 mph93%30.45 "Hg4 mi
11:30 pm
Wed, Dec 7
37 °FClear.1 mph93%30.45 "Hg10 mi
11:00 pm37 °FFog.2 mph93%30.45 "Hg2 mi
10:30 pm37 °FClear.3 mph93%30.45 "Hg4 mi
10:00 pm39 °FClear.3 mph93%30.45 "Hg6 mi
9:30 pm41 °FClear.2 mph87%30.45 "Hg10 mi
9:00 pm41 °FClear.2 mph87%30.45 "Hg10 mi
8:30 pm41 °FClear.No wind87%30.45 "Hg6 mi
8:00 pm45 °FClear.3 mph81%30.45 "Hg10 mi
7:30 pm45 °FClear.2 mph81%30.45 "Hg10 mi
7:00 pm46 °FClear.No wind76%30.42 "Hg10 mi
6:30 pm50 °FClear.5 mph71%30.42 "Hg10 mi
6:00 pm50 °FClear.3 mph67%30.42 "Hg10 mi
5:30 pm52 °FPassing clouds.3 mph67%30.42 "HgN/A
5:00 pm52 °FSunny.3 mph67%30.42 "Hg10 mi
4:30 pm55 °FSunny.3 mph59%30.42 "Hg10 mi
4:00 pm57 °FSunny.2 mph55%30.42 "Hg10 mi
3:30 pm57 °FSunny.3 mph55%30.42 "Hg10 mi
3:00 pm57 °FSunny.2 mph51%30.42 "Hg10 mi
Weather by CustomWeather, © 2016

See weather overviewHow to use our weather pages